Regional Weather Roundup
Issued by NWS

Home | Current Version | Previous Version | Text Only | Print | Product List | Glossary Off
Versions: 1 2 3 4 5 6 7 8 9 10 11 12 13 14 15 16 17 18 19 20 21 22 23 24 25 26 27 28 29 30 31 32 33 34 35 36 37 38 39 40 41 42 43 44 45 46 47 48 49 50

000
ASUS43 KLOT 230908
RWRIL

ILLINOIS REGIONAL WEATHER ROUNDUP
NATIONAL WEATHER SERVICE CHICAGO/ROMEOVILLE IL
400 AM CDT SUN APR 23 2017

NOTE: "FAIR" INDICATES FEW OR NO CLOUDS BELOW 12,000 FEET WITH NO
SIGNIFICANT WEATHER AND/OR OBSTRUCTIONS TO VISIBILITY.

* THESE STATIONS ARE NOT UNDER NWS QUALITY CONTROL. THEY ALSO MAY NOT
  REPORT WEATHER SUCH AS PRECIPITATION OR FOG.

ILZ001-002-007-009-015-016-024-231000-
NORTHWEST ILLINOIS

CITY           SKY/WX    TMP DP  RH WIND       PRES   REMARKS
MOLINE         CLEAR     38  34  85 CALM      30.15R
STERLING*      CLEAR     39  34  82 CALM      30.15R
SAVANNA*       CLEAR     36  35  97 CALM      30.14S
$$

ILZ003-004-008-010-011-017-018-231000-
NORTH CENTRAL ILLINOIS

CITY           SKY/WX    TMP DP  RH WIND       PRES   REMARKS
ROCKFORD       CLEAR     38  31  76 CALM      30.16R
FREEPORT*      CLEAR     36  29  76 CALM      30.16R
ROCHELLE*      CLEAR     35  30  79 CALM      30.14S
DE KALB*       CLEAR     41  25  52 CALM      30.14S
PERU*          CLEAR     38  29  69 N5        30.14R WCI  35
$$

ILZ005-006-012>014-019>023-231000-
NORTHEAST ILLINOIS

CITY           SKY/WX    TMP DP  RH WIND       PRES   REMARKS
CHICAGO-OHARE  CLEAR     41  29  62 CALM      30.12S
CHICAGO-MIDWAY CLEAR     41  32  70 CALM      30.13S
AURORA         CLEAR     33  29  85 NW3       30.13S
LANSING*       CLEAR     35  33  94 CALM      30.13S
JOLIET*        CLEAR     36  33  89 CALM      30.13S
WAUKEGAN       CLEAR     34  31  88 CALM      30.12S
DUPAGE AIRPORT CLEAR     36  31  82 CALM      30.12S
KANKAKEE*      CLEAR     37  29  75 CALM      30.13R
WHEELING       CLEAR     37  31  78 CALM      30.14S
MORRIS*        CLEAR     40  27  61 CALM      30.13R
ROMEOVILLE*    CLEAR     40  33  75 CALM      30.12S
NORTHERLY ISL    N/A     45  32  60 CALM        N/A
$$

LMZ740>746-231000-
SOUTHERN LAKE MICHIGAN

STATION/POSITION SKY/WX   TEMP    WIND        PRES    VSBY  WAVE
                          AIR SEA DIR/SP/G                  HT/PER
                          (F)     (DEG/KT/KT) (MB)    (MI)  (FT/S)
HARRISON CRIB              49     230/  3/  3   N/A
BURNHAM HARBOR             45      CALM  /  1   N/A
CALUMET HARBOR             42     290/  3/  4 1019.5R
BURNS HARBOR               46      60/  2/  3 1020.3S
MICHIGAN CITY              43      CALM  /  1   N/A
ST. JOSEPH                 47 48  280/  2/  2 1020.6          1/ 4
$$

ILZ025>027-034>036-040-047-049-050-058-095>099-231000-
WEST-CENTRAL ILLINOIS

CITY           SKY/WX    TMP DP  RH WIND       PRES   REMARKS
QUINCY         CLEAR     41  29  62 N8        30.12S
GALESBURG*     CLEAR     35  32  88 CALM      30.13S
MACOMB*        CLEAR     36  30  80 N6        30.15S WCI  31
JACKSONVILLE*  CLEAR     38  29  70 N7        30.11R WCI  32
PITTSFIELD*    CLEAR     43  30  60 N3        30.12S
$$

ILZ028>032-037-038-041>044-048-051>054-059>061-231000-
CENTRAL ILLINOIS

CITY           SKY/WX    TMP DP  RH WIND       PRES   REMARKS
PONTIAC        CLEAR     39  29  68 CALM      30.13S
BLOOMINGTON    CLEAR     37  27  67 NE8       30.12S WCI  31
DECATUR        CLEAR     37  30  75 NE10      30.09S WCI  30
PEORIA         CLEAR     40  30  67 N5        30.12S
LACON*         CLEAR     36  30  80 CALM      30.13S
LINCOLN*       CLEAR     40  30  68 N3        30.11S
SPRINGFIELD    CLEAR     40  32  73 NE3       30.10F
TAYLORVILLE    CLEAR     38  30  72 N6        30.09S WCI  33
$$

ILZ033-039-045-046-055>057-062-063-231000-
EAST-CENTRAL ILLINOIS

CITY           SKY/WX    TMP DP  RH WIND       PRES   REMARKS
CHAMPAIGN      CLEAR     42  25  50 NE9       30.09S
RANTOUL*       CLEAR     43  28  57 NE7       30.10S
MATTOON        CLEAR     36  31  82 N6        30.07S WCI  31
PARIS*         CLEAR     40  32  74 NE7       30.08S
$$

ILZ079-100>102-231000-
SOUTHWEST ILLINOIS

CITY           SKY/WX    TMP DP  RH WIND       PRES   REMARKS
ALTON          CLEAR     43  31  63 N3        30.08F
BELLEVILLE     CLEAR     44  35  68 N8        30.05S
CAHOKIA*       CLEAR     45  34  65 N7        30.07S
SPARTA*        CLEAR     43  36  76 N9        30.05R
$$

ILZ064>066-069>071-074>076-080>082-084>086-088>090-092>094-231000-
SOUTH-CENTRAL ILLINOIS

CITY           SKY/WX    TMP DP  RH WIND       PRES   REMARKS
CARBONDALE     CLOUDY    49  40  71 N10       29.99S
CAIRO*         CLOUDY    49  45  84 N8        29.94S
EFFINGHAM*     CLEAR     42  33  70 N5        30.06S
MARION         CLOUDY    50  39  66 N9        29.99S
MT. VERNON     CLOUDY    45  35  68 NE8       30.02R
CENTRALIA*     CLEAR     43  37  80 N8        30.03S
SALEM*         CLEAR     44  35  70 N9        30.04S
METROPOLIS*    CLOUDY    50  42  73 N7        29.94F
$$

ILZ067-068-072-073-078-083-087-091-231000-
SOUTHEAST ILLINOIS

CITY           SKY/WX    TMP DP  RH WIND       PRES   REMARKS
LAWRENCEVILLE  PTCLDY    44  35  70 NE12      30.02F
FLORA*         PTCLDY    44  37  76 N6        30.03S
FAIRFIELD*     CLOUDY    44  37  76 N6        30.01S
HARRISBURG*    CLOUDY    49  39  67 N9        29.98S
ROBINSON*      CLEAR     42  35  76 NE10      30.05S
CARMI*         CLOUDY    48  38  67 N13G18    29.98S
$$

ABBREVIATIONS USED IN REMARKS
   TC - TEMPERATURE IN CELSIUS
  WCI - WIND CHILL INDEX
   HX - HEAT INDEX
  VSB - VISIBILITY
$$





USA.gov is the U.S. government's official web portal to all federal, state and local government web resources and services.